CZ-4B DEB, 64200

Orbit data source: Space-Track

CZ-4B DEB, 64200 is space debris in SSO originally from a launch on Thu, 29 May 2025 UTC launched from the Jiuquan Satellite Launch Center, China (JSC). Debris objects in space refer to the collection of defunct objects orbiting the Earth. Examples of debris include non-operational satellites, rocket bodies, and fragments generated from explosions, collisions, or faulty payload assembly.

Not visible in the next 10 days
Identifier
64200, 2025-115B
Orbit
SSO
Country
Flag of CNCN / PRC
Related business
Manufacturer
SAST
Mission
Spacecraft
Bus & Motor
Unknown
Mass
Unknown
Launch date (UTC)
2025-05-29 (1 year ago)
Launch vehicle
Unknown
Launch site
Jiuquan Satellite Launch Center, China (JSC)
Object type
Payload
Rocket body
Debris
Shape & HBR
Unknown shape, 0.3 m
Radar Cross Section
Medium (>0.1 m² and <1 m²)

Expand to show TLE details & history
Last TLE update: 16 hours ago

TLE from 16 hours ago
0 CZ-4B DEB
1 64200U 25115B   26171.16799432  .00245447  00000-0  22700-2 0  9993
2 64200  97.4726 254.6923 0022745 260.4487  99.4202 15.66456757 59126
Epoch: 2026-06-20T04:01Z
TLE epoch observation values (Epoch: 2026-06-20T04:01:54.709Z)
Latitude
-0.00008°
Longitude
-74.17214°
Altitude
374.75 km
Speed
7.683 km/s
True Right ascension
16h 58m 46s
True Declination
0° 00' 00"
Sunlit
Object was in full shadow at epoch
Visualization orbit readout
Latitude
Unknown
Longitude
Unknown
Altitude
Unknown
Speed
Unknown
Apparent Right ascension
Unknown
Apparent Declination
Unknown
Sunlit
N/A
Visualization observer readout
Local Sidereal Time
07:13:53
Azimuth
Unknown
Elevation
Unknown
Doppler factor
Unknown
Orbital elements
Apogee altitude
381.299 km
Perigee altitude
350.62 km
Semi-major axis
6,744.096 km
Eccentricity
0.00227
Inclination
97.4726°
RAAN
254.6923°
Arg. of periapsis
260.4487°
True anomaly
99.6772°
Mean anomaly
99.4202°
Eccentric anomaly
99.54871°
Mean motion
3.91884 °/min
Orbital period
91.86 mins
BSTAR
0.00227
Loading maneuver chart data...
Computing Atmospheric mass density...
Loading historical data...
Loading historical data...
Loading historical data...
Loading historical data...
Loading historical data...
Loading historical data...
Loading historical data...
Other satellites on launch #115 in the year 2025 (2025-05-29 UTC)

Documentation

Showing up to 5 results
|